TimeMST,TemperatureF,Dew PointF,Humidity,Sea Level PressureIn,VisibilityMPH,Wind Direction,Wind SpeedMPH,Gust SpeedMPH,PrecipitationIn,Events,Conditions,WindDirDegrees,DateUTC
12:57 AM,19.0,10.9,71,30.32,10.0,Calm,Calm,-,N/A,,Clear,0,2012-11-13 07:57:00
1:57 AM,18.0,10.9,74,30.31,10.0,Calm,Calm,-,N/A,,Clear,0,2012-11-13 08:57:00
2:57 AM,17.1,10.9,77,30.32,10.0,Calm,Calm,-,N/A,,Clear,0,2012-11-13 09:57:00
3:57 AM,16.0,10.0,77,30.33,10.0,Calm,Calm,-,N/A,,Clear,0,2012-11-13 10:57:00
4:57 AM,16.0,10.0,77,30.34,10.0,Calm,Calm,-,N/A,,Clear,0,2012-11-13 11:57:00
5:57 AM,15.1,10.0,80,30.38,10.0,Calm,Calm,-,N/A,,Clear,0,2012-11-13 12:57:00
6:57 AM,15.1,9.0,77,30.41,10.0,Calm,Calm,-,N/A,,Clear,0,2012-11-13 13:57:00
7:57 AM,21.9,12.9,68,30.40,10.0,Calm,Calm,-,N/A,,Clear,0,2012-11-13 14:57:00
8:15 AM,55.4,51.8,88,-9999,-9999.0,North,-9999.0,-,N/A,,Unknown,0,2012-11-13 15:15:00
8:57 AM,34.0,9.0,35,30.36,10.0,East,8.1,-,N/A,,Clear,80,2012-11-13 15:57:00
9:57 AM,41.0,7.0,25,30.33,-9999.0,ENE,9.2,-,N/A,,Clear,60,2012-11-13 16:57:00
10:57 AM,43.0,7.0,23,30.31,10.0,NE,11.5,20.7,N/A,,Clear,50,2012-11-13 17:57:00
11:57 AM,45.0,6.1,20,30.29,10.0,ENE,10.4,18.4,N/A,,Clear,60,2012-11-13 18:57:00
12:57 PM,46.9,7.0,20,30.28,10.0,ENE,10.4,-,N/A,,Clear,60,2012-11-13 19:57:00
1:57 PM,48.9,7.0,18,30.25,10.0,East,8.1,-,N/A,,Clear,80,2012-11-13 20:57:00
2:57 PM,48.0,5.0,17,30.26,10.0,East,9.2,16.1,N/A,,Clear,100,2012-11-13 21:57:00
3:57 PM,46.9,6.1,19,30.27,10.0,East,6.9,-,N/A,,Clear,90,2012-11-13 22:57:00
4:57 PM,44.1,6.1,21,30.30,10.0,East,3.5,-,N/A,,Clear,80,2012-11-13 23:57:00
5:57 PM,35.1,9.0,34,30.35,10.0,Calm,Calm,-,N/A,,Clear,0,2012-11-14 00:57:00
6:57 PM,28.9,7.0,40,30.40,10.0,Calm,Calm,-,N/A,,Clear,0,2012-11-14 01:57:00
7:57 PM,26.1,9.0,49,30.38,10.0,Calm,Calm,-,N/A,,Clear,0,2012-11-14 02:57:00
8:57 PM,24.1,10.9,57,30.35,10.0,Calm,Calm,-,N/A,,Clear,0,2012-11-14 03:57:00
9:57 PM,21.0,12.0,68,30.33,10.0,Calm,Calm,-,N/A,,Clear,0,2012-11-14 04:57:00
10:57 PM,19.0,12.0,74,30.32,10.0,Calm,Calm,-,N/A,,Clear,0,2012-11-14 05:57:00